When you browse on this site, cookies collect data to enhance your experience and personalize the content and advertising you see.
Visit our Privacy Policy to learn more. By continuing to use the site, you agree to this use of cookies and data.
  • In Hungary
  • List of Countries
  • For 7 days
  • Water Temperature
  • Satellite Maps
  • Weather Map
  • News
  • Weather Widgets
  • user-avatar
    Login

    Hourly Weather Swiete

    Today, 20 January, Sunday

    Time Temperature Precipitation Wind Pressure Humidity
    00:00 -1°C° 0 mm 1 mps 762 mmHg 87%
    01:00 -2°C° 0 mm 1 mps 762 mmHg 86%
    02:00 -2°C° 0 mm 1 mps 762 mmHg 86%
    03:00 -2°C° 0 mm 1 mps 762 mmHg 86%
    04:00 -2°C° 0 mm 1 mps 761 mmHg 86%
    05:00 -2°C° 0 mm 1 mps 761 mmHg 85%
    06:00 -3°C° 0 mm 0 mps 761 mmHg 85%
    07:00 -3°C° 0 mm 0 mps 761 mmHg 82%
    08:00 -3°C° 0 mm 0 mps 762 mmHg 79%
    09:00 -2°C° 0 mm 0 mps 762 mmHg 75%
    10:00 -2°C° 0 mm 0 mps 762 mmHg 72%
    11:00 -1°C° 0 mm 0 mps 762 mmHg 68%
    12:00 0°C° 0 mm 0 mps 762 mmHg 64%
    13:00 +1°C° 0 mm 1 mps 762 mmHg 67%
    14:00 0°C° 0 mm 1 mps 762 mmHg 71%
    15:00 0°C° 0 mm 1 mps 762 mmHg 74%
    16:00 -1°C° 0 mm 1 mps 762 mmHg 77%
    17:00 -1°C° 0 mm 1 mps 763 mmHg 79%
    18:00 -1°C° 0 mm 1 mps 763 mmHg 82%
    19:00 -2°C° 0 mm 1 mps 763 mmHg 84%
    20:00 -2°C° 0 mm 1 mps 763 mmHg 84%
    21:00 -2°C° 0 mm 1 mps 763 mmHg 85%
    22:00 -2°C° 0 mm 1 mps 764 mmHg 85%
    23:00 -2°C° 0 mm 1 mps 764 mmHg 85%

    Tomorrow, 21 January, Monday

    Time Temperature Precipitation Wind Pressure Humidity
    00:00 -2°C° 0 mm 1 mps 764 mmHg 85%
    01:00 -2°C° 0 mm 1 mps 764 mmHg 85%
    02:00 -2°C° 0 mm 1 mps 764 mmHg 85%
    03:00 -2°C° 0 mm 1 mps 764 mmHg 84%
    04:00 -5°C° 0 mm 2 mps 764 mmHg 84%
    05:00 -5°C° 0 mm 2 mps 764 mmHg 84%
    06:00 -5°C° 0 mm 2 mps 764 mmHg 84%
    07:00 -5°C° 0 mm 2 mps 764 mmHg 84%
    08:00 -5°C° 0 mm 2 mps 764 mmHg 81%
    09:00 -4°C° 0 mm 2 mps 764 mmHg 78%
    10:00 -5°C° 0 mm 3 mps 764 mmHg 76%
    11:00 -4°C° 0 mm 3 mps 764 mmHg 72%
    12:00 -2°C° 0 mm 3 mps 764 mmHg 68%
    13:00 -1°C° 0 mm 3 mps 763 mmHg 64%
    14:00 -2°C° 0 mm 3 mps 763 mmHg 65%
    15:00 -2°C° 0 mm 3 mps 763 mmHg 67%
    16:00 -2°C° 0 mm 3 mps 762 mmHg 69%
    17:00 -2°C° 0 mm 3 mps 762 mmHg 68%
    18:00 -4°C° 0 mm 3 mps 762 mmHg 67%
    19:00 -4°C° 0 mm 4 mps 762 mmHg 66%
    20:00 -4°C° 0 mm 4 mps 761 mmHg 66%
    21:00 -4°C° 0 mm 4 mps 761 mmHg 65%
    22:00 -4°C° 0 mm 4 mps 761 mmHg 64%
    23:00 -4°C° 0 mm 4 mps 760 mmHg 64%

    Day after tomorrow, 22 January, Tuesday

    Time Temperature Precipitation Wind Pressure Humidity
    00:00 -4°C° 0 mm 3 mps 760 mmHg 64%
    01:00 -4°C° 0 mm 3 mps 760 mmHg 63%
    02:00 -5°C° 0 mm 3 mps 759 mmHg 65%
    03:00 -5°C° 0 mm 3 mps 759 mmHg 66%
    04:00 -5°C° 0 mm 3 mps 758 mmHg 68%
    05:00 -5°C° 0 mm 3 mps 758 mmHg 70%
    06:00 -6°C° 0 mm 3 mps 758 mmHg 71%
    07:00 -5°C° 0 mm 2 mps 757 mmHg 73%
    08:00 -5°C° 0 mm 3 mps 757 mmHg 72%
    09:00 -5°C° 0 mm 3 mps 757 mmHg 71%
    10:00 -5°C° 0 mm 3 mps 757 mmHg 70%
    11:00 -4°C° 0 mm 3 mps 756 mmHg 68%
    12:00 -2°C° 0 mm 3 mps 756 mmHg 66%
    13:00 -1°C° 0 mm 3 mps 755 mmHg 64%
    14:00 -2°C° 0 mm 3 mps 755 mmHg 66%
    15:00 -2°C° 0 mm 3 mps 754 mmHg 69%
    16:00 -4°C° 0 mm 3 mps 754 mmHg 71%
    17:00 -4°C° 0 mm 3 mps 754 mmHg 72%
    18:00 -4°C° 0 mm 3 mps 753 mmHg 72%
    19:00 -5°C° 0 mm 4 mps 753 mmHg 73%
    20:00 -5°C° 0 mm 4 mps 753 mmHg 71%
    21:00 -5°C° 0 mm 4 mps 753 mmHg 70%
    22:00 -5°C° 0 mm 4 mps 753 mmHg 69%
    23:00 -5°C° 0 mm 4 mps 752 mmHg 69%

    23 January, Wednesday

    Time Temperature Precipitation Wind Pressure Humidity
    00:00 -5°C° 0 mm 4 mps 752 mmHg 69%
    01:00 -7°C° 0 mm 4 mps 752 mmHg 69%
    02:00 -7°C° 0 mm 4 mps 752 mmHg 70%
    03:00 -7°C° 0 mm 4 mps 752 mmHg 71%
    04:00 -7°C° 0 mm 4 mps 751 mmHg 71%
    05:00 -7°C° 0 mm 4 mps 751 mmHg 72%
    06:00 -7°C° 0 mm 4 mps 751 mmHg 73%
    07:00 -7°C° 0 mm 4 mps 751 mmHg 74%
    08:00 -7°C° 0 mm 4 mps 752 mmHg 73%
    09:00 -5°C° 0 mm 4 mps 752 mmHg 72%
    10:00 -6°C° 0 mm 5 mps 752 mmHg 72%
    11:00 -4°C° 0 mm 4 mps 752 mmHg 69%
    12:00 -3°C° 0 mm 4 mps 752 mmHg 65%
    13:00 -3°C° 0 mm 4 mps 752 mmHg 62%
    14:00 -3°C° 0 mm 4 mps 752 mmHg 65%
    15:00 -4°C° 0 mm 3 mps 753 mmHg 68%
    16:00 -4°C° 0 mm 3 mps 753 mmHg 71%
    17:00 -4°C° 0 mm 3 mps 753 mmHg 73%
    18:00 -5°C° 0 mm 3 mps 754 mmHg 75%
    19:00 -5°C° 0 mm 3 mps 754 mmHg 78%
    20:00 -6°C° 0 mm 3 mps 754 mmHg 78%
    21:00 -6°C° 0 mm 3 mps 755 mmHg 79%
    22:00 -6°C° 0 mm 3 mps 755 mmHg 79%
    23:00 -5°C° 0 mm 2 mps 755 mmHg 81%

    24 January, Thursday

    Time Temperature Precipitation Wind Pressure Humidity
    00:00 -5°C° 0 mm 2 mps 755 mmHg 82%
    01:00 -6°C° 0 mm 2 mps 756 mmHg 84%
    02:00 -6°C° 0 mm 2 mps 756 mmHg 84%
    03:00 -6°C° 0 mm 2 mps 756 mmHg 85%
    04:00 -6°C° 0 mm 2 mps 756 mmHg 86%
    05:00 -6°C° 0 mm 2 mps 756 mmHg 86%
    06:00 -4°C° 0 mm 1 mps 756 mmHg 85%
    07:00 -4°C° 0 mm 1 mps 757 mmHg 85%
    08:00 -4°C° 0 mm 1 mps 757 mmHg 82%
    09:00 -3°C° 0 mm 1 mps 757 mmHg 80%
    10:00 -3°C° 0 mm 1 mps 757 mmHg 77%
    11:00 -2°C° 0 mm 1 mps 757 mmHg 74%
    12:00 -2°C° 0 mm 1 mps 758 mmHg 71%
    13:00 -1°C° 0 mm 1 mps 758 mmHg 67%
    14:00 -1°C° 0 mm 1 mps 758 mmHg 68%
    15:00 -2°C° 0 mm 0 mps 758 mmHg 69%
    16:00 -2°C° 0 mm 0 mps 758 mmHg 70%
    17:00 -2°C° 0 mm 0 mps 758 mmHg 71%
    18:00 -2°C° 0 mm 0 mps 758 mmHg 72%
    19:00 -3°C° 0 mm 0 mps 758 mmHg 73%
    20:00 -3°C° 0 mm 0 mps 758 mmHg 73%
    21:00 -3°C° 0 mm 0 mps 759 mmHg 74%
    22:00 -3°C° 0 mm 0 mps 759 mmHg 74%
    23:00 -3°C° 0 mm 0 mps 759 mmHg 75%

    25 January, Friday

    Time Temperature Precipitation Wind Pressure Humidity
    00:00 -3°C° 0 mm 0 mps 759 mmHg 76%
    01:00 -3°C° 0 mm 0 mps 759 mmHg 77%
    02:00 -2°C° 0 mm 1 mps 759 mmHg 78%
    03:00 -2°C° 0 mm 1 mps 759 mmHg 78%
    04:00 -2°C° 0 mm 1 mps 759 mmHg 78%
    05:00 -2°C° 0 mm 1 mps 759 mmHg 79%
    06:00 -3°C° 0 mm 1 mps 759 mmHg 80%
    07:00 -3°C° 0 mm 1 mps 759 mmHg 81%
    08:00 -3°C° 0 mm 1 mps 759 mmHg 79%
    09:00 -2°C° 0 mm 1 mps 760 mmHg 77%
    10:00 -3°C° 0 mm 0 mps 760 mmHg 74%
    11:00 -1°C° 0 mm 1 mps 760 mmHg 71%
    12:00 -1°C° 0 mm 1 mps 760 mmHg 67%
    13:00 0°C° 0 mm 1 mps 760 mmHg 64%
    14:00 0°C° 0 mm 1 mps 760 mmHg 66%
    15:00 -1°C° 0 mm 1 mps 760 mmHg 68%
    16:00 -1°C° 0 mm 1 mps 760 mmHg 70%
    17:00 -1°C° 0 mm 1 mps 760 mmHg 72%
    18:00 -3°C° 0 mm 0 mps 760 mmHg 74%
    19:00 -3°C° 0 mm 0 mps 760 mmHg 76%
    20:00 -2°C° 0 mm 1 mps 760 mmHg 79%
    21:00 -2°C° 0 mm 1 mps 760 mmHg 81%
    22:00 -4°C° 0 mm 2 mps 760 mmHg 83%
    23:00 -5°C° 0 mm 2 mps 759 mmHg 86%
    Show more